Lentran, United Kingdom

3:39 PM GMT on February 20, 2017 (GMT +0000)
Inverness

Weather History for EGPE - March, 2013

Change the Weather History Date:

Sunday, March 17, 2013

  Actual Average Record
Temperature  
Mean Temperature 34 °F -  
Max Temperature 41 °F 49 °F 59 °F (2005)
Min Temperature 26 °F 35 °F 23 °F (2003)
Degree Days  
Heating Degree Days 32    
Moisture  
Dew Point 35 °F    
Average Humidity 96    
Maximum Humidity 100    
Minimum Humidity 81    
Precipitation  
Precipitation 0.00 in - - ()
Sea Level Pressure  
Sea Level Pressure 29.27 in    
Wind  
Wind Speed 4 mph ()    
Max Wind Speed 15 mph    
Max Gust Speed -    
Visibility 5.4 miles    
Events Fog , Rain    
Averages and records for this station are not official NWS values.
T = Trace of Precipitation, MM = Missing Value Source: Averaged Metar Reports

Daily Weather History Graph

Daily Weather History Graph

Search for Another Location

Airport or City:

Trip Planner

Search our weather history database for the weather conditions in past years. The results will help you decide how hot, cold, wet, or windy it might be!

Date:

Astronomy

Mar. 17, 2013 Rise Set
Actual Time 6:26 AM GMT 6:23 PM GMT
Civil Twilight 5:47 AM GMT 7:02 PM GMT
Nautical Twilight 5:02 AM GMT 7:48 PM GMT
Astronomical Twilight 4:13 AM GMT 8:37 PM GMT
Moon 8:20 AM GMT (3/17) 12:24 AM GMT (3/17)
Length of Visible Light 13h 14m
Length of Day
11h 57m
Waxing Crescent, 30% of the Moon is Illuminated
Mar 17
Waxing Crescent
Mar 19
First Quarter
Mar 27
Full
Apr 3
Last Quarter
Apr 10
New

Hourly Weather History & Observations

Time (GMT) Temp. Windchill Dew Point Humidity Pressure Visibility Wind Dir Wind Speed Gust Speed Precip Events Conditions
12:20 AM 37.4 °F - 37.4 °F 100% 29.24 in 0.6 mi Calm Calm - N/A   Overcast
12:50 AM 35.6 °F - 35.6 °F 100% 29.24 in 0.2 mi ENE 2.3 mph - N/A Fog Patches of Fog
1:20 AM 35.6 °F - 35.6 °F 100% 29.24 in 1.9 mi Variable 2.3 mph - N/A   Mostly Cloudy
1:50 AM 35.6 °F 32.8 °F 35.6 °F 100% 29.24 in 6.2 mi WSW 3.5 mph - N/A   Overcast
2:20 AM 33.8 °F 29.6 °F 33.8 °F 100% 29.21 in 6.2 mi West 4.6 mph - N/A   Scattered Clouds
2:50 AM 33.8 °F 29.6 °F 33.8 °F 100% 29.24 in 6.2 mi South 4.6 mph - N/A   Mostly Cloudy
3:20 AM 32.0 °F - 32.0 °F 100% 29.24 in - Variable 2.3 mph - N/A   Mist
3:50 AM 30.2 °F - 30.2 °F 100% 29.24 in 3.7 mi Calm Calm - N/A   Unknown
4:20 AM 28.4 °F - 28.4 °F 100% 29.24 in 0.3 mi Calm Calm - N/A Fog Fog
4:50 AM 28.4 °F - 28.4 °F 100% 29.24 in 0.1 mi SSW 2.3 mph - N/A Fog Fog
5:20 AM 30.2 °F - 30.2 °F 100% 29.24 in - South 2.3 mph - N/A   Scattered Clouds
5:50 AM 28.4 °F - 28.4 °F 100% 29.24 in - Calm Calm - N/A   Mist
6:20 AM 26.6 °F - 26.6 °F 100% 29.27 in 3.7 mi Calm Calm - N/A   Unknown
6:50 AM 26.6 °F - 26.6 °F 100% 29.27 in 6.2 mi South 2.3 mph - N/A   Partly Cloudy
7:20 AM 28.4 °F - 28.4 °F 100% 29.27 in 6.2 mi South 2.3 mph - N/A   Partly Cloudy
7:50 AM 28.4 °F - 28.4 °F 100% 29.27 in 6.2 mi Calm Calm - N/A Fog Scattered Clouds
8:20 AM 32.0 °F 28.7 °F 32.0 °F 100% 29.27 in 6.2 mi East 3.5 mph - N/A Fog Mostly Cloudy
8:50 AM 33.8 °F 30.8 °F 33.8 °F 100% 29.27 in 6.2 mi NE 3.5 mph - N/A Fog Scattered Clouds
9:20 AM 35.6 °F 31.7 °F 35.6 °F 100% 29.27 in 6.2 mi NE 4.6 mph - N/A Fog Mostly Cloudy
9:50 AM 37.4 °F - 35.6 °F 93% 29.27 in 6.2 mi NE 2.3 mph - N/A Fog Mostly Cloudy
10:20 AM 39.2 °F 35.9 °F 37.4 °F 93% 29.27 in 6.2 mi NE 4.6 mph - N/A   Mostly Cloudy
10:50 AM 39.2 °F 34.2 °F 37.4 °F 93% 29.27 in 6.2 mi NE 6.9 mph - N/A   Mostly Cloudy
11:20 AM 41.0 °F 36.4 °F 39.2 °F 93% 29.27 in 6.2 mi NNE 6.9 mph - N/A   Mostly Cloudy
11:50 AM 41.0 °F 35.8 °F 39.2 °F 93% 29.24 in 5.0 mi NE 8.1 mph - N/A   Mostly Cloudy
12:20 PM 41.0 °F 34.7 °F 39.2 °F 93% 29.24 in 6.2 mi NE 10.4 mph - N/A   Mostly Cloudy
12:50 PM 41.0 °F 34.3 °F 39.2 °F 93% 29.24 in 5.6 mi NE 11.5 mph - N/A   Mostly Cloudy
1:20 PM 41.0 °F 34.7 °F 39.2 °F 93% 29.24 in 6.2 mi NE 10.4 mph - N/A Rain Light Rain
1:50 PM 41.0 °F 34.3 °F 39.2 °F 93% 29.24 in 5.0 mi NE 11.5 mph - N/A Rain Light Rain
2:20 PM 41.0 °F 33.9 °F 39.2 °F 93% 29.24 in 5.0 mi ENE 12.7 mph - N/A Rain Light Rain
2:50 PM 41.0 °F 34.3 °F 39.2 °F 93% 29.24 in 6.2 mi NE 11.5 mph - N/A Rain Light Rain
3:20 PM 41.0 °F 33.9 °F 39.2 °F 93% 29.21 in 6.2 mi NE 12.7 mph - N/A   Mostly Cloudy
3:50 PM 39.2 °F 33.6 °F 39.2 °F 100% 29.21 in 6.2 mi NE 8.1 mph - N/A Rain Light Rain Showers
4:20 PM 41.0 °F 34.3 °F 39.2 °F 93% 29.21 in 6.2 mi East 11.5 mph - N/A Rain Light Rain Showers
4:50 PM 39.2 °F 32.5 °F 37.4 °F 93% 29.24 in 6.2 mi East 10.4 mph - N/A   Mostly Cloudy
5:20 PM 39.2 °F 32.5 °F 37.4 °F 93% 29.24 in 6.2 mi ENE 10.4 mph - N/A   Scattered Clouds
5:50 PM 37.4 °F 31.4 °F 35.6 °F 93% 29.27 in 6.2 mi ENE 8.1 mph - N/A   Scattered Clouds
6:20 PM 37.4 °F 32.1 °F 35.6 °F 93% 29.27 in 6.2 mi ENE 6.9 mph - N/A   Scattered Clouds
6:50 PM 39.2 °F 34.2 °F 35.6 °F 87% 29.30 in 6.2 mi East 6.9 mph - N/A   Mostly Cloudy
7:20 PM 37.4 °F 32.1 °F 35.6 °F 93% 29.30 in 6.2 mi NNE 6.9 mph - N/A   Mostly Cloudy
7:50 PM 35.6 °F 30.7 °F 33.8 °F 93% 29.33 in 6.2 mi NE 5.8 mph - N/A   Mostly Cloudy
8:20 PM 35.6 °F 29.2 °F 33.8 °F 93% 29.33 in 6.2 mi North 8.1 mph - N/A   Scattered Clouds
8:50 PM 39.2 °F 31.2 °F 33.8 °F 81% 29.36 in 6.2 mi East 13.8 mph - N/A   Scattered Clouds
9:20 PM 37.4 °F 30.8 °F 35.6 °F 93% 29.36 in 6.2 mi East 9.2 mph - N/A   Scattered Clouds
9:50 PM 37.4 °F 30.3 °F 35.6 °F 93% 29.36 in 6.2 mi ENE 10.4 mph - N/A   Mostly Cloudy
10:20 PM 37.4 °F 29.3 °F 35.6 °F 93% 29.39 in 6.2 mi ENE 12.7 mph - N/A   Mostly Cloudy
10:50 PM 37.4 °F 28.5 °F 35.6 °F 93% 29.39 in 6.2 mi NE 15.0 mph - N/A   Mostly Cloudy
11:20 PM 37.4 °F 30.8 °F 35.6 °F 93% 29.39 in 5.6 mi ENE 9.2 mph - N/A   Drizzle
11:50 PM 37.4 °F 30.8 °F 37.4 °F 100% 29.42 in 6.2 mi ENE 9.2 mph - N/A   Overcast